STARLINK-35659

Last updated on Wed Dec 10 2025 00:02:05 GMT+0000 (Coordinated Universal Time)

1 66385U 25257F 25343.52480049 .00098973 00000+0 24491-2 0 9995 2 66385 53.1604 279.7499 0001557 95.6073 264.5110 15.39660087 5878
UTC large
Height (km)
Speed (km/s)
/
Latitude / Longitude
Inclination (degrees)
Orbital Period (minutes)
Azimuth
Elevation
Range (km)
Doppler Factor

Next 0 passes for location: London (51.5072 / 0.1276)

Sorry there are no passes over London.